Weather History for Mandan, ND

Change the Weather History Date:

Saturday, April 27, 2013

  Actual Average (KBIS) Record (KBIS)
Temperature  
Mean Temperature 60 °F 49 °F  
Max Temperature 77 °F 62 °F 92 °F (1952)
Min Temperature 44 °F 35 °F 18 °F (1994)
Degree Days  
Heating Degree Days 4 16  
Month to date heating degree days 590  
Since 1 July heating degree days 8109  
Cooling Degree Days 0 0  
Month to date cooling degree days 0  
Year to date cooling degree days 0  
Growing Degree Days 10 (Base 50)    
Moisture  
Dew Point 33 °F    
Average Humidity 35    
Maximum Humidity 61    
Minimum Humidity 17    
Precipitation  
Precipitation 0.00 in 0.05 in 1.12 in (1984)
Month to date precipitation 1.09  
Year to date precipitation 2.90  
Snow  
Snow 0.00 in 0.00 in 11.90 in (1984)
Month to date snowfall 4.0  
Since 1 July snowfall 50.6  
Snow Depth -    
Sea Level Pressure  
Sea Level Pressure 29.86 in    
Wind  
Wind Speed 12 mph (WSW)    
Max Wind Speed 21 mph    
Max Gust Speed 30 mph    
Visibility 10 miles    
Events      
T = Trace of Precipitation, MM = Missing Value Source: NWS Daily Summary

Daily Weather History Graph

Daily Weather History Graph

Search for Another Location

Airport:

Trip Planner

Search our weather history database for the weather conditions in past years. The results will help you decide how hot, cold, wet, or windy it might be!

Date:

Astronomy

Apr. 27, 2013 Rise Set
Actual Time 6:34 AM CDT 8:48 PM CDT
Civil Twilight 6:01 AM CDT 9:21 PM CDT
Nautical Twilight 5:20 AM CDT 10:03 PM CDT
Astronomical Twilight 4:34 AM CDT 10:50 PM CDT
Moon 11:26 PM CDT (4/27) 7:48 AM CDT (4/27)
Length of Visible Light 15h 20m
Length of Day
14h 14m
Waning Gibbous, 95% of the Moon is Illuminated
Apr 27
Waning Gibbous
May 2
Last Quarter
May 9
New
May 17
First Quarter
May 24
Full

Hourly Weather History & Observations

Time (CDT) Temp. Windchill Dew Point Humidity Pressure Visibility Wind Dir Wind Speed Gust Speed Precip Events Conditions
12:15 AM 51.8 °F - 32.0 °F 47% 30.00 in 10.0 mi South 11.5 mph - N/A   Clear
12:35 AM 51.8 °F - 32.0 °F 47% 30.00 in 10.0 mi South 12.7 mph - N/A   Clear
12:55 AM 50.0 °F - 32.0 °F 50% 30.00 in 10.0 mi South 12.7 mph - N/A   Clear
1:15 AM 50.0 °F - 32.0 °F 50% 30.00 in 10.0 mi South 12.7 mph - N/A   Clear
1:35 AM 50.0 °F - 32.0 °F 50% 29.99 in 10.0 mi South 12.7 mph - N/A   Clear
1:55 AM 51.8 °F - 32.0 °F 47% 29.99 in 10.0 mi SSW 12.7 mph 16.1 mph N/A   Clear
2:15 AM 50.0 °F - 32.0 °F 50% 29.98 in 10.0 mi South 13.8 mph 20.7 mph N/A   Clear
2:35 AM 50.0 °F - 32.0 °F 50% 29.98 in 10.0 mi SSW 13.8 mph 20.7 mph N/A   Clear
2:55 AM 50.0 °F - 32.0 °F 50% 29.97 in 10.0 mi SSW 12.7 mph 18.4 mph N/A   Clear
3:15 AM 48.2 °F - 32.0 °F 54% 29.96 in 10.0 mi SSW 9.2 mph - N/A   Clear
3:35 AM 48.2 °F - 32.0 °F 54% 29.96 in 10.0 mi SSW 11.5 mph - N/A   Clear
3:55 AM 48.2 °F - 32.0 °F 54% 29.95 in 10.0 mi SW 12.7 mph 21.9 mph N/A   Clear
4:15 AM 46.4 °F 40.4 °F 32.0 °F 57% 29.95 in 10.0 mi SSW 13.8 mph - N/A   Clear
4:35 AM 48.2 °F - 32.0 °F 54% 29.95 in 10.0 mi SSW 13.8 mph - N/A   Clear
4:55 AM 46.4 °F 40.1 °F 32.0 °F 57% 29.94 in 10.0 mi SSW 15.0 mph - N/A   Clear
5:15 AM 48.2 °F - 32.0 °F 54% 29.94 in 10.0 mi SSW 15.0 mph 20.7 mph N/A   Clear
6:35 AM 44.6 °F 38.8 °F 32.0 °F 61% 29.92 in 10.0 mi SSW 11.5 mph - N/A   Clear
6:55 AM 46.4 °F 40.1 °F 32.0 °F 57% 29.91 in 10.0 mi SW 15.0 mph - N/A   Clear
7:15 AM 50.0 °F - 32.0 °F 50% 29.91 in 10.0 mi SSW 12.7 mph - N/A   Clear
7:35 AM 48.2 °F - 32.0 °F 54% 29.91 in 10.0 mi SSW 13.8 mph - N/A   Clear
7:55 AM 50.0 °F - 32.0 °F 50% 29.91 in 10.0 mi SW 11.5 mph - N/A   Clear
8:15 AM 50.0 °F - 33.8 °F 54% 29.92 in 10.0 mi SW 12.7 mph - N/A   Clear
8:35 AM 53.6 °F - 33.8 °F 47% 29.91 in 10.0 mi SW 13.8 mph - N/A   Clear
8:55 AM 57.2 °F - 33.8 °F 41% 29.91 in 10.0 mi SW 9.2 mph - N/A   Clear
9:15 AM 59.0 °F - 33.8 °F 39% 29.90 in 10.0 mi SW 13.8 mph - N/A   Clear
9:35 AM 59.0 °F - 33.8 °F 39% 29.90 in 10.0 mi SW 12.7 mph 18.4 mph N/A   Clear
9:55 AM 62.6 °F - 35.6 °F 37% 29.90 in 10.0 mi WSW 16.1 mph - N/A   Clear
10:15 AM 64.4 °F - 33.8 °F 32% 29.90 in 10.0 mi West 11.5 mph 18.4 mph N/A   Clear
10:35 AM 66.2 °F - 33.8 °F 30% 29.90 in 10.0 mi West 10.4 mph - N/A   Clear
10:55 AM 68.0 °F - 35.6 °F 30% 29.89 in 10.0 mi West 12.7 mph - N/A   Clear
11:15 AM 69.8 °F - 32.0 °F 25% 29.89 in 10.0 mi WNW 8.1 mph - N/A   Clear
11:35 AM 71.6 °F - 32.0 °F 23% 29.89 in 10.0 mi WNW 15.0 mph - N/A   Clear
11:55 AM 73.4 °F - 32.0 °F 22% 29.89 in 10.0 mi West 10.4 mph - N/A   Clear
12:15 PM 75.2 °F - 32.0 °F 21% 29.88 in 10.0 mi WNW 10.4 mph 17.3 mph N/A   Clear
12:35 PM 75.2 °F - 32.0 °F 21% 29.88 in 10.0 mi WNW 15.0 mph - N/A   Clear
12:55 PM 75.2 °F - 32.0 °F 21% 29.87 in 10.0 mi WNW 13.8 mph - N/A   Clear
1:15 PM 75.2 °F - 32.0 °F 21% 29.86 in 10.0 mi WNW 13.8 mph 17.3 mph N/A   Clear
1:35 PM 77.0 °F - 32.0 °F 19% 29.85 in 10.0 mi West 15.0 mph 29.9 mph N/A   Clear
1:55 PM 77.0 °F - 32.0 °F 19% 29.84 in 10.0 mi WNW 16.1 mph 21.9 mph N/A   Clear
2:15 PM 77.0 °F - 32.0 °F 19% 29.84 in 10.0 mi WNW 13.8 mph - N/A   Clear
2:35 PM 77.0 °F - 30.2 °F 18% 29.83 in 10.0 mi WSW 16.1 mph 24.2 mph N/A   Clear
2:55 PM 75.2 °F - 30.2 °F 19% 29.83 in 10.0 mi West 13.8 mph 19.6 mph N/A   Clear
3:15 PM 77.0 °F - 30.2 °F 18% 29.83 in 10.0 mi West 20.7 mph 25.3 mph N/A   Clear
3:35 PM 77.0 °F - 28.4 °F 17% 29.82 in 10.0 mi WNW 19.6 mph 25.3 mph N/A   Clear
3:55 PM 77.0 °F - 30.2 °F 18% 29.82 in 10.0 mi West 16.1 mph 27.6 mph N/A   Clear
4:15 PM 77.0 °F - 32.0 °F 19% 29.81 in 10.0 mi WSW 15.0 mph 24.2 mph N/A   Clear
4:35 PM 77.0 °F - 32.0 °F 19% 29.80 in 10.0 mi West 17.3 mph 21.9 mph N/A   Clear
4:55 PM 77.0 °F - 32.0 °F 19% 29.80 in 10.0 mi West 13.8 mph 25.3 mph N/A   Clear
5:15 PM 77.0 °F - 32.0 °F 19% 29.79 in 10.0 mi West 15.0 mph 21.9 mph N/A   Clear
5:35 PM 77.0 °F - 32.0 °F 19% 29.78 in 10.0 mi West 16.1 mph 19.6 mph N/A   Clear
5:55 PM 77.0 °F - 32.0 °F 19% 29.77 in 10.0 mi West 18.4 mph 21.9 mph N/A   Clear
6:15 PM 75.2 °F - 32.0 °F 21% 29.77 in 10.0 mi West 13.8 mph - N/A   Partly Cloudy
6:35 PM 75.2 °F - 32.0 °F 21% 29.77 in 10.0 mi WNW 11.5 mph - N/A   Scattered Clouds
6:55 PM 75.2 °F - 32.0 °F 21% 29.76 in 10.0 mi West 15.0 mph - N/A   Scattered Clouds
7:15 PM 73.4 °F - 32.0 °F 22% 29.76 in 10.0 mi West 11.5 mph - N/A   Clear
7:35 PM 73.4 °F - 35.6 °F 25% 29.76 in 10.0 mi West 9.2 mph - N/A   Clear
7:55 PM 69.8 °F - 37.4 °F 31% 29.75 in 10.0 mi West 5.8 mph - N/A   Clear
8:15 PM 68.0 °F - 33.8 °F 28% 29.74 in 8.0 mi WSW 5.8 mph - N/A   Clear
8:35 PM 68.0 °F - 32.0 °F 26% 29.74 in 10.0 mi SW 4.6 mph - N/A   Clear
8:55 PM 64.4 °F - 35.6 °F 34% 29.74 in 10.0 mi SW 5.8 mph - N/A   Clear
9:15 PM 62.6 °F - 33.8 °F 34% 29.74 in 10.0 mi SW 6.9 mph - N/A   Clear
9:35 PM 64.4 °F - 33.8 °F 32% 29.74 in 10.0 mi SW 6.9 mph - N/A   Clear
9:55 PM 60.8 °F - 35.6 °F 39% 29.74 in 10.0 mi SW 5.8 mph - N/A   Clear
10:15 PM 60.8 °F - 33.8 °F 36% 29.74 in 10.0 mi SW 8.1 mph - N/A   Clear
10:35 PM 59.0 °F - 33.8 °F 39% 29.73 in 10.0 mi SW 6.9 mph - N/A   Clear
10:55 PM 59.0 °F - 33.8 °F 39% 29.73 in 10.0 mi SW 5.8 mph - N/A   Clear
11:15 PM 57.2 °F - 35.6 °F 44% 29.72 in 10.0 mi SSW 6.9 mph - N/A   Clear
11:35 PM 57.2 °F - 35.6 °F 44% 29.72 in 10.0 mi SW 6.9 mph - N/A   Clear
11:55 PM 57.2 °F - 37.4 °F 48% 29.71 in 10.0 mi WSW 5.8 mph - N/A   Scattered Clouds